Terug naar catalogus

STARLINK-3690

ActiefCommunicatieVLEO
NORAD 51964·PAYLOAD·🇺🇸 United States

Gelanceerd Mar 9, 2022 vanaf Cape Canaveral Space Force Station

Loading…

Volgende Passages (komende 24 uur)

TLE

VersSource: CelesTrak SupGP

Epoch: Sep 14, 2026, 13:42 UTC

1 51964C 22025J   26257.57131944 -.00036205  00000+0 -11642-2 0  2572
2 51964  53.1579 225.2699 0001200  84.6603 121.5856 15.31721521    19

Volg STARLINK-3690 in realtime met AllMySat

Download on the App Store